PWSweather.com
Personal Weather Stations
Station Observations
UGLTEWKE1
3 Beckford Close, BeckfordGB GL20 7

3 Beckford CloseBeckfordGB GL20 7

Lat: 52.01582, Lon: -2.037782

Elevation: 112

Station Type: Davis Vantage Pro2

http://www.theshieling.net/weatherdavis.php

Latest ConditionsUpdated 11:20:00 AM GMT Friday, Jul 19, 2019
Currently Today's Max Today's Min Today's Average
Temperature 63.0°F17.2°C 63.0°F17.2°C 52.0°F11.1°C 57.1°F13.9°C
Dew Point 58.6°F14.8°C 58.8°F14.9°C 47.8°F8.8°C 53.2°F11.8°C
Winds 5.0 mph S8.0 kmh S 9.0 mph -14.5 kmh - - 1.8 mph 2.9 kmh
Wind Gusts 10.0 mph16.1 kmh 19.0 mph30.6 kmh - -
Humidity 86% 90% 81% 87%
Pressure 29.76 in1007.8 mb 29.89 in1012.2 mb 29.73 in1006.8 mb -
Precipitation - 0.12 in3.0 mm - -
Hour Temp Dew Point Humidity Winds Wind Gusts Pressure Precip Precip Rate Daily Precip Total
11:20 AM 63.0°F17.2°C 58.6°F14.8°C 86% 5.0 mph S8.0 kmh S 10.0 mph16.1 kmh 29.76 in1007.8 mb 0.00 in0.0 mm 0.00 in0.0 mm 0.12 in3.0 mm
11:15 AM 62.8°F17.1°C 58.8°F14.9°C 87% 2.0 mph S3.2 kmh S 7.0 mph11.3 kmh 29.77 in1008.1 mb 0.00 in0.0 mm 0.00 in0.0 mm 0.12 in3.0 mm
11:10 AM 62.6°F17.0°C 58.3°F14.6°C 86% 4.0 mph SSE6.4 kmh SSE 11.0 mph17.7 kmh 29.77 in1008.1 mb 0.00 in0.0 mm 0.00 in0.0 mm 0.12 in3.0 mm
11:05 AM 62.4°F16.9°C 58.1°F14.5°C 86% 5.0 mph SSE8.0 kmh SSE 9.0 mph14.5 kmh 29.77 in1008.1 mb 0.00 in0.0 mm 0.00 in0.0 mm 0.12 in3.0 mm
11:00 AM 62.4°F16.9°C 58.1°F14.5°C 86% 6.0 mph S9.7 kmh S 11.0 mph17.7 kmh 29.77 in1008.1 mb 0.00 in0.0 mm 0.00 in0.0 mm 0.12 in3.0 mm
10:55 AM 62.4°F16.9°C 58.1°F14.5°C 86% 4.0 mph S6.4 kmh S 8.0 mph12.9 kmh 29.78 in1008.5 mb 0.00 in0.0 mm 0.00 in0.0 mm 0.12 in3.0 mm
10:50 AM 62.4°F16.9°C 58.1°F14.5°C 86% 6.0 mph S9.7 kmh S 12.0 mph19.3 kmh 29.78 in1008.5 mb 0.00 in0.0 mm 0.00 in0.0 mm 0.12 in3.0 mm
10:45 AM 62.4°F16.9°C 58.1°F14.5°C 86% 6.0 mph S9.7 kmh S 13.0 mph20.9 kmh 29.77 in1008.1 mb 0.00 in0.0 mm 0.00 in0.0 mm 0.12 in3.0 mm
10:40 AM 62.4°F16.9°C 58.1°F14.5°C 86% 6.0 mph S9.7 kmh S 13.0 mph20.9 kmh 29.78 in1008.5 mb 0.01 in0.3 mm 0.00 in0.0 mm 0.12 in3.0 mm
10:35 AM 62.1°F16.7°C 57.7°F14.3°C 86% 5.0 mph SSW8.0 kmh SSW 11.0 mph17.7 kmh 29.78 in1008.5 mb 0.02 in0.5 mm 0.00 in0.0 mm 0.12 in3.0 mm
10:30 AM 62.1°F16.7°C 57.7°F14.3°C 86% 7.0 mph S11.3 kmh S 11.0 mph17.7 kmh 29.78 in1008.5 mb 0.02 in0.5 mm 0.00 in0.0 mm 0.12 in3.0 mm
10:25 AM 62.2°F16.8°C 57.7°F14.3°C 85% 6.0 mph S9.7 kmh S 12.0 mph19.3 kmh 29.78 in1008.5 mb 0.02 in0.5 mm 0.00 in0.0 mm 0.12 in3.0 mm
10:20 AM 62.2°F16.8°C 57.9°F14.4°C 86% 4.0 mph SSW6.4 kmh SSW 10.0 mph16.1 kmh 29.78 in1008.5 mb 0.03 in0.8 mm 0.00 in0.0 mm 0.12 in3.0 mm
10:15 AM 61.9°F16.6°C 58.3°F14.6°C 88% 4.0 mph SSE6.4 kmh SSE 13.0 mph20.9 kmh 29.78 in1008.5 mb 0.03 in0.8 mm 0.00 in0.0 mm 0.12 in3.0 mm
10:10 AM 61.0°F16.1°C 57.0°F13.9°C 87% 3.0 mph SSE4.8 kmh SSE 10.0 mph16.1 kmh 29.76 in1007.8 mb 0.03 in0.8 mm 0.00 in0.0 mm 0.12 in3.0 mm
10:05 AM 60.6°F15.9°C 56.7°F13.7°C 87% 6.0 mph SSE9.7 kmh SSE 14.0 mph22.5 kmh 29.76 in1007.8 mb 0.03 in0.8 mm 0.00 in0.0 mm 0.12 in3.0 mm
10:00 AM 60.3°F15.7°C 56.7°F13.7°C 88% 8.0 mph SSE12.9 kmh SSE 17.0 mph27.4 kmh 29.75 in1007.5 mb 0.03 in0.8 mm 0.00 in0.0 mm 0.12 in3.0 mm
09:55 AM 59.9°F15.5°C 56.3°F13.5°C 88% 7.0 mph SE11.3 kmh SE 16.0 mph25.7 kmh 29.73 in1006.8 mb 0.03 in0.8 mm 0.00 in0.0 mm 0.12 in3.0 mm
09:50 AM 59.7°F15.4°C 56.1°F13.4°C 88% 7.0 mph SSE11.3 kmh SSE 12.0 mph19.3 kmh 29.77 in1008.1 mb 0.05 in1.3 mm 0.00 in0.0 mm 0.12 in3.0 mm
09:45 AM 59.5°F15.3°C 55.9°F13.3°C 88% 9.0 mph SSE14.5 kmh SSE 19.0 mph30.6 kmh 29.79 in1008.8 mb 0.05 in1.3 mm 0.00 in0.0 mm 0.12 in3.0 mm
09:40 AM 59.5°F15.3°C 55.9°F13.3°C 88% 4.0 mph SSE6.4 kmh SSE 10.0 mph16.1 kmh 29.79 in1008.8 mb 0.06 in1.5 mm 0.00 in0.0 mm 0.11 in2.8 mm
09:35 AM 59.4°F15.2°C 55.8°F13.2°C 88% 5.0 mph SSE8.0 kmh SSE 9.0 mph14.5 kmh 29.79 in1008.8 mb 0.06 in1.5 mm 0.00 in0.0 mm 0.11 in2.8 mm
09:30 AM 59.4°F15.2°C 55.8°F13.2°C 88% 5.0 mph S8.0 kmh S 10.0 mph16.1 kmh 29.79 in1008.8 mb 0.06 in1.5 mm 0.00 in0.0 mm 0.10 in2.5 mm
09:25 AM 59.2°F15.1°C 55.6°F13.1°C 88% 3.0 mph SSE4.8 kmh SSE 10.0 mph16.1 kmh 29.80 in1009.1 mb 0.06 in1.5 mm 0.00 in0.0 mm 0.10 in2.5 mm
09:20 AM 59.2°F15.1°C 55.9°F13.3°C 89% 4.0 mph SSE6.4 kmh SSE 12.0 mph19.3 kmh 29.80 in1009.1 mb 0.06 in1.5 mm 0.00 in0.0 mm 0.09 in2.3 mm
09:15 AM 58.8°F14.9°C 55.6°F13.1°C 89% 5.0 mph SSE8.0 kmh SSE 14.0 mph22.5 kmh 29.80 in1009.1 mb 0.06 in1.5 mm 0.00 in0.0 mm 0.09 in2.3 mm
09:10 AM 58.6°F14.8°C 55.4°F13.0°C 89% 3.0 mph S4.8 kmh S 10.0 mph16.1 kmh 29.80 in1009.1 mb 0.06 in1.5 mm 0.00 in0.0 mm 0.09 in2.3 mm
09:05 AM 58.6°F14.8°C 55.4°F13.0°C 89% 2.0 mph SSE3.2 kmh SSE 9.0 mph14.5 kmh 29.80 in1009.1 mb 0.06 in1.5 mm 0.00 in0.0 mm 0.09 in2.3 mm
09:00 AM 58.6°F14.8°C 55.4°F13.0°C 89% 2.0 mph SSE3.2 kmh SSE 11.0 mph17.7 kmh 29.80 in1009.1 mb 0.06 in1.5 mm 0.00 in0.0 mm 0.09 in2.3 mm
08:55 AM 58.6°F14.8°C 55.0°F12.8°C 88% 1.0 mph SSE1.6 kmh SSE 7.0 mph11.3 kmh 29.80 in1009.1 mb 0.06 in1.5 mm 0.19 in4.8 mm 0.09 in2.3 mm
08:50 AM 58.6°F14.8°C 55.0°F12.8°C 88% Calm Calm 2.0 mph3.2 kmh 29.80 in1009.1 mb 0.05 in1.3 mm 0.00 in0.0 mm 0.07 in1.8 mm
08:45 AM 58.6°F14.8°C 55.0°F12.8°C 88% 1.0 mph SSE1.6 kmh SSE 4.0 mph6.4 kmh 29.80 in1009.1 mb 0.05 in1.3 mm 0.09 in2.3 mm 0.07 in1.8 mm
08:40 AM 58.6°F14.8°C 55.0°F12.8°C 88% 4.0 mph SSE6.4 kmh SSE 9.0 mph14.5 kmh 29.81 in1009.5 mb 0.04 in1.0 mm 0.09 in2.3 mm 0.06 in1.5 mm
08:35 AM 58.6°F14.8°C 55.0°F12.8°C 88% 4.0 mph SSE6.4 kmh SSE 11.0 mph17.7 kmh 29.81 in1009.5 mb 0.03 in0.8 mm 0.09 in2.3 mm 0.06 in1.5 mm
08:30 AM 58.6°F14.8°C 55.0°F12.8°C 88% 3.0 mph SSE4.8 kmh SSE 9.0 mph14.5 kmh 29.82 in1009.8 mb 0.02 in0.5 mm 0.09 in2.3 mm 0.04 in1.0 mm
08:25 AM 58.8°F14.9°C 55.0°F12.8°C 87% 4.0 mph SSE6.4 kmh SSE 9.0 mph14.5 kmh 29.82 in1009.8 mb 0.02 in0.5 mm 0.09 in2.3 mm 0.04 in1.0 mm
08:20 AM 58.8°F14.9°C 55.0°F12.8°C 87% 4.0 mph SSE6.4 kmh SSE 11.0 mph17.7 kmh 29.82 in1009.8 mb 0.01 in0.3 mm 0.00 in0.0 mm 0.02 in0.5 mm
08:15 AM 58.8°F14.9°C 55.2°F12.9°C 88% Calm Calm 5.0 mph8.0 kmh 29.82 in1009.8 mb 0.01 in0.3 mm 0.00 in0.0 mm 0.02 in0.5 mm
08:10 AM 58.8°F14.9°C 55.2°F12.9°C 88% Calm Calm 4.0 mph6.4 kmh 29.82 in1009.8 mb 0.01 in0.3 mm 0.00 in0.0 mm 0.02 in0.5 mm
08:05 AM 58.8°F14.9°C 55.2°F12.9°C 88% Calm Calm -- 29.82 in1009.8 mb 0.01 in0.3 mm 0.00 in0.0 mm 0.02 in0.5 mm
08:00 AM 58.6°F14.8°C 55.0°F12.8°C 88% Calm Calm -- 29.82 in1009.8 mb 0.01 in0.3 mm 0.00 in0.0 mm 0.02 in0.5 mm
07:55 AM 58.6°F14.8°C 55.0°F12.8°C 88% Calm Calm -- 29.82 in1009.8 mb 0.01 in0.3 mm 0.00 in0.0 mm 0.02 in0.5 mm
07:50 AM 58.5°F14.7°C 54.7°F12.6°C 87% Calm Calm -- 29.82 in1009.8 mb 0.01 in0.3 mm 0.00 in0.0 mm 0.02 in0.5 mm
07:45 AM 58.3°F14.6°C 54.5°F12.5°C 87% Calm Calm -- 29.82 in1009.8 mb 0.01 in0.3 mm 0.09 in2.3 mm 0.02 in0.5 mm
07:40 AM 58.3°F14.6°C 54.5°F12.5°C 87% Calm Calm 5.0 mph8.0 kmh 29.83 in1010.2 mb 0.00 in0.0 mm 0.00 in0.0 mm 0.02 in0.5 mm
07:35 AM 58.5°F14.7°C 54.7°F12.6°C 87% Calm Calm -- 29.83 in1010.2 mb 0.00 in0.0 mm 0.00 in0.0 mm 0.02 in0.5 mm
07:30 AM 58.5°F14.7°C 54.7°F12.6°C 87% Calm Calm -- 29.83 in1010.2 mb 0.00 in0.0 mm 0.00 in0.0 mm 0.02 in0.5 mm
07:25 AM 58.5°F14.7°C 54.7°F12.6°C 87% Calm Calm -- 29.83 in1010.2 mb 0.00 in0.0 mm 0.00 in0.0 mm 0.02 in0.5 mm
07:20 AM 58.6°F14.8°C 54.9°F12.7°C 87% Calm Calm -- 29.83 in1010.2 mb 0.00 in0.0 mm 0.00 in0.0 mm 0.02 in0.5 mm
07:15 AM 58.5°F14.7°C 54.7°F12.6°C 87% Calm Calm 5.0 mph8.0 kmh 29.83 in1010.2 mb 0.01 in0.3 mm 0.00 in0.0 mm 0.02 in0.5 mm
07:10 AM 58.6°F14.8°C 54.9°F12.7°C 87% Calm Calm -- 29.83 in1010.2 mb 0.01 in0.3 mm 0.00 in0.0 mm 0.02 in0.5 mm
07:05 AM 58.5°F14.7°C 54.7°F12.6°C 87% Calm Calm -- 29.83 in1010.2 mb 0.01 in0.3 mm 0.00 in0.0 mm 0.02 in0.5 mm
07:00 AM 58.3°F14.6°C 54.5°F12.5°C 87% Calm Calm 6.0 mph9.7 kmh 29.83 in1010.2 mb 0.01 in0.3 mm 0.00 in0.0 mm 0.02 in0.5 mm
06:55 AM 57.9°F14.4°C 54.1°F12.3°C 87% 1.0 mph SSE1.6 kmh SSE 7.0 mph11.3 kmh 29.84 in1010.5 mb 0.01 in0.3 mm 0.00 in0.0 mm 0.02 in0.5 mm
06:50 AM 57.9°F14.4°C 54.1°F12.3°C 87% 3.0 mph SSE4.8 kmh SSE 9.0 mph14.5 kmh 29.84 in1010.5 mb 0.01 in0.3 mm 0.00 in0.0 mm 0.02 in0.5 mm
06:45 AM 57.7°F14.3°C 54.0°F12.2°C 87% 1.0 mph SSE1.6 kmh SSE 7.0 mph11.3 kmh 29.84 in1010.5 mb 0.01 in0.3 mm 0.00 in0.0 mm 0.02 in0.5 mm
06:40 AM 57.6°F14.2°C 53.8°F12.1°C 87% 2.0 mph SSE3.2 kmh SSE 6.0 mph9.7 kmh 29.84 in1010.5 mb 0.02 in0.5 mm 0.00 in0.0 mm 0.02 in0.5 mm
06:35 AM 57.6°F14.2°C 53.8°F12.1°C 87% 4.0 mph SSE6.4 kmh SSE 8.0 mph12.9 kmh 29.84 in1010.5 mb 0.02 in0.5 mm 0.00 in0.0 mm 0.02 in0.5 mm
06:30 AM 57.7°F14.3°C 54.0°F12.2°C 87% 5.0 mph S8.0 kmh S 9.0 mph14.5 kmh 29.84 in1010.5 mb 0.02 in0.5 mm 0.00 in0.0 mm 0.02 in0.5 mm
06:25 AM 57.7°F14.3°C 54.0°F12.2°C 87% 4.0 mph SSE6.4 kmh SSE 11.0 mph17.7 kmh 29.84 in1010.5 mb 0.02 in0.5 mm 0.00 in0.0 mm 0.02 in0.5 mm
06:20 AM 57.9°F14.4°C 53.8°F12.1°C 86% 4.0 mph SSE6.4 kmh SSE 10.0 mph16.1 kmh 29.84 in1010.5 mb 0.02 in0.5 mm 0.09 in2.3 mm 0.02 in0.5 mm
06:15 AM 57.9°F14.4°C 53.8°F12.1°C 86% 2.0 mph S3.2 kmh S 6.0 mph9.7 kmh 29.84 in1010.5 mb 0.01 in0.3 mm 0.00 in0.0 mm 0.02 in0.5 mm
06:10 AM 57.9°F14.4°C 53.8°F12.1°C 86% 3.0 mph SSE4.8 kmh SSE 9.0 mph14.5 kmh 29.85 in1010.8 mb 0.01 in0.3 mm 0.00 in0.0 mm 0.02 in0.5 mm
06:05 AM 58.1°F14.5°C 54.0°F12.2°C 86% 3.0 mph S4.8 kmh S 7.0 mph11.3 kmh 29.85 in1010.8 mb 0.01 in0.3 mm 0.00 in0.0 mm 0.02 in0.5 mm
06:00 AM 58.1°F14.5°C 53.6°F12.0°C 85% 2.0 mph S3.2 kmh S 7.0 mph11.3 kmh 29.85 in1010.8 mb 0.01 in0.3 mm 0.00 in0.0 mm 0.02 in0.5 mm
05:55 AM 58.3°F14.6°C 53.8°F12.1°C 85% 2.0 mph S3.2 kmh S 6.0 mph9.7 kmh 29.85 in1010.8 mb 0.01 in0.3 mm 0.00 in0.0 mm 0.02 in0.5 mm
05:50 AM 58.3°F14.6°C 53.4°F11.9°C 84% 3.0 mph S4.8 kmh S 11.0 mph17.7 kmh 29.85 in1010.8 mb 0.01 in0.3 mm 0.00 in0.0 mm 0.02 in0.5 mm
05:45 AM 58.6°F14.8°C 53.2°F11.8°C 82% 6.0 mph S9.7 kmh S 11.0 mph17.7 kmh 29.85 in1010.8 mb 0.01 in0.3 mm 0.09 in2.3 mm 0.02 in0.5 mm
05:40 AM 58.8°F14.9°C 53.1°F11.7°C 81% 3.0 mph S4.8 kmh S 9.0 mph14.5 kmh 29.85 in1010.8 mb 0.00 in0.0 mm 0.00 in0.0 mm 0.02 in0.5 mm
05:35 AM 58.8°F14.9°C 53.1°F11.7°C 81% 5.0 mph S8.0 kmh S 10.0 mph16.1 kmh 29.84 in1010.5 mb 0.00 in0.0 mm 0.00 in0.0 mm 0.02 in0.5 mm
05:30 AM 59.0°F15.0°C 53.2°F11.8°C 81% 4.0 mph S6.4 kmh S 9.0 mph14.5 kmh 29.85 in1010.8 mb 0.00 in0.0 mm 0.00 in0.0 mm 0.02 in0.5 mm
05:25 AM 58.8°F14.9°C 53.4°F11.9°C 82% 5.0 mph S8.0 kmh S 10.0 mph16.1 kmh 29.85 in1010.8 mb 0.00 in0.0 mm 0.00 in0.0 mm 0.02 in0.5 mm
05:20 AM 58.8°F14.9°C 53.6°F12.0°C 83% 4.0 mph S6.4 kmh S 9.0 mph14.5 kmh 29.84 in1010.5 mb 0.00 in0.0 mm 0.00 in0.0 mm 0.02 in0.5 mm
05:15 AM 58.8°F14.9°C 53.6°F12.0°C 83% 3.0 mph SSE4.8 kmh SSE 8.0 mph12.9 kmh 29.84 in1010.5 mb 0.00 in0.0 mm 0.00 in0.0 mm 0.02 in0.5 mm
05:10 AM 58.6°F14.8°C 53.8°F12.1°C 84% 1.0 mph S1.6 kmh S 7.0 mph11.3 kmh 29.85 in1010.8 mb 0.00 in0.0 mm 0.00 in0.0 mm 0.02 in0.5 mm
05:05 AM 58.6°F14.8°C 54.1°F12.3°C 85% 1.0 mph S1.6 kmh S 6.0 mph9.7 kmh 29.84 in1010.5 mb 0.00 in0.0 mm 0.00 in0.0 mm 0.02 in0.5 mm
05:00 AM 58.5°F14.7°C 54.0°F12.2°C 85% 2.0 mph SSE3.2 kmh SSE 6.0 mph9.7 kmh 29.85 in1010.8 mb 0.00 in0.0 mm 0.00 in0.0 mm 0.02 in0.5 mm
04:55 AM 58.5°F14.7°C 54.0°F12.2°C 85% 2.0 mph S3.2 kmh S 7.0 mph11.3 kmh 29.84 in1010.5 mb 0.00 in0.0 mm 0.00 in0.0 mm 0.02 in0.5 mm
04:50 AM 58.3°F14.6°C 54.1°F12.3°C 86% 1.0 mph S1.6 kmh S 5.0 mph8.0 kmh 29.85 in1010.8 mb 0.00 in0.0 mm 0.00 in0.0 mm 0.02 in0.5 mm
04:45 AM 57.9°F14.4°C 54.1°F12.3°C 87% 1.0 mph S1.6 kmh S 6.0 mph9.7 kmh 29.85 in1010.8 mb 0.00 in0.0 mm 0.00 in0.0 mm 0.02 in0.5 mm
04:40 AM 57.9°F14.4°C 54.3°F12.4°C 88% 1.0 mph SSW1.6 kmh SSW 5.0 mph8.0 kmh 29.85 in1010.8 mb 0.00 in0.0 mm 0.00 in0.0 mm 0.02 in0.5 mm
04:35 AM 57.6°F14.2°C 54.0°F12.2°C 88% Calm Calm -- 29.85 in1010.8 mb 0.00 in0.0 mm 0.00 in0.0 mm 0.02 in0.5 mm
04:30 AM 57.4°F14.1°C 54.1°F12.3°C 89% Calm Calm -- 29.85 in1010.8 mb 0.00 in0.0 mm 0.00 in0.0 mm 0.02 in0.5 mm
04:25 AM 56.8°F13.8°C 53.6°F12.0°C 89% Calm Calm -- 29.85 in1010.8 mb 0.00 in0.0 mm 0.00 in0.0 mm 0.02 in0.5 mm
04:20 AM 56.5°F13.6°C 53.2°F11.8°C 89% Calm Calm -- 29.85 in1010.8 mb 0.00 in0.0 mm 0.00 in0.0 mm 0.02 in0.5 mm
04:15 AM 56.3°F13.5°C 53.1°F11.7°C 89% Calm Calm -- 29.85 in1010.8 mb 0.00 in0.0 mm 0.00 in0.0 mm 0.02 in0.5 mm
04:10 AM 56.1°F13.4°C 52.9°F11.6°C 89% Calm Calm -- 29.86 in1011.2 mb 0.00 in0.0 mm 0.00 in0.0 mm 0.02 in0.5 mm
04:05 AM 55.9°F13.3°C 52.7°F11.5°C 89% Calm Calm -- 29.86 in1011.2 mb 0.00 in0.0 mm 0.00 in0.0 mm 0.02 in0.5 mm
04:00 AM 55.9°F13.3°C 52.5°F11.4°C 88% Calm Calm -- 29.86 in1011.2 mb 0.00 in0.0 mm 0.00 in0.0 mm 0.02 in0.5 mm
03:55 AM 55.9°F13.3°C 52.5°F11.4°C 88% Calm Calm -- 29.85 in1010.8 mb 0.00 in0.0 mm 0.00 in0.0 mm 0.02 in0.5 mm
03:50 AM 55.8°F13.2°C 52.5°F11.4°C 89% Calm Calm -- 29.85 in1010.8 mb 0.00 in0.0 mm 0.00 in0.0 mm 0.02 in0.5 mm
03:45 AM 55.8°F13.2°C 52.3°F11.3°C 88% Calm Calm -- 29.85 in1010.8 mb 0.00 in0.0 mm 0.00 in0.0 mm 0.02 in0.5 mm
03:40 AM 55.8°F13.2°C 52.3°F11.3°C 88% Calm Calm -- 29.85 in1010.8 mb 0.00 in0.0 mm 0.00 in0.0 mm 0.02 in0.5 mm
03:35 AM 55.8°F13.2°C 52.3°F11.3°C 88% Calm Calm -- 29.85 in1010.8 mb 0.00 in0.0 mm 0.00 in0.0 mm 0.02 in0.5 mm
03:30 AM 55.6°F13.1°C 52.3°F11.3°C 89% Calm Calm -- 29.85 in1010.8 mb 0.00 in0.0 mm 0.00 in0.0 mm 0.02 in0.5 mm
03:25 AM 55.4°F13.0°C 52.2°F11.2°C 89% Calm Calm -- 29.85 in1010.8 mb 0.00 in0.0 mm 0.00 in0.0 mm 0.02 in0.5 mm
03:20 AM 55.2°F12.9°C 52.0°F11.1°C 89% Calm Calm -- 29.86 in1011.2 mb 0.00 in0.0 mm 0.00 in0.0 mm 0.02 in0.5 mm
03:15 AM 55.0°F12.8°C 51.8°F11.0°C 89% Calm Calm -- 29.86 in1011.2 mb 0.00 in0.0 mm 0.00 in0.0 mm 0.02 in0.5 mm
03:10 AM 54.9°F12.7°C 51.6°F10.9°C 89% Calm Calm -- 29.86 in1011.2 mb 0.00 in0.0 mm 0.00 in0.0 mm 0.02 in0.5 mm
03:05 AM 54.7°F12.6°C 51.4°F10.8°C 89% Calm Calm -- 29.86 in1011.2 mb 0.00 in0.0 mm 0.00 in0.0 mm 0.02 in0.5 mm
03:00 AM 54.3°F12.4°C 51.4°F10.8°C 90% Calm Calm -- 29.86 in1011.2 mb 0.00 in0.0 mm 0.00 in0.0 mm 0.00 in0.0 mm
02:55 AM 54.1°F12.3°C 50.9°F10.5°C 89% Calm Calm -- 29.87 in1011.5 mb 0.00 in0.0 mm 0.00 in0.0 mm 0.00 in0.0 mm
02:50 AM 53.8°F12.1°C 50.5°F10.3°C 89% Calm Calm -- 29.87 in1011.5 mb 0.00 in0.0 mm 0.00 in0.0 mm 0.00 in0.0 mm
02:45 AM 53.4°F11.9°C 50.2°F10.1°C 89% Calm Calm -- 29.87 in1011.5 mb 0.00 in0.0 mm 0.00 in0.0 mm 0.00 in0.0 mm
02:40 AM 53.2°F11.8°C 50.0°F10.0°C 89% Calm Calm -- 29.87 in1011.5 mb 0.00 in0.0 mm 0.00 in0.0 mm 0.00 in0.0 mm
02:35 AM 53.2°F11.8°C 50.0°F10.0°C 89% Calm Calm -- 29.87 in1011.5 mb 0.00 in0.0 mm 0.00 in0.0 mm 0.00 in0.0 mm
02:30 AM 53.1°F11.7°C 49.8°F9.9°C 89% Calm Calm -- 29.86 in1011.2 mb 0.00 in0.0 mm 0.00 in0.0 mm 0.00 in0.0 mm
02:25 AM 52.5°F11.4°C 49.5°F9.7°C 89% Calm Calm -- 29.87 in1011.5 mb 0.00 in0.0 mm 0.00 in0.0 mm 0.00 in0.0 mm
02:20 AM 52.5°F11.4°C 49.1°F9.5°C 88% Calm Calm -- 29.87 in1011.5 mb 0.00 in0.0 mm 0.00 in0.0 mm 0.00 in0.0 mm
02:15 AM 52.5°F11.4°C 49.5°F9.7°C 89% Calm Calm -- 29.86 in1011.2 mb 0.00 in0.0 mm 0.00 in0.0 mm 0.00 in0.0 mm
02:10 AM 52.3°F11.3°C 49.3°F9.6°C 89% Calm Calm -- 29.87 in1011.5 mb 0.00 in0.0 mm 0.00 in0.0 mm 0.00 in0.0 mm
02:05 AM 52.3°F11.3°C 48.9°F9.4°C 88% Calm Calm -- 29.87 in1011.5 mb 0.00 in0.0 mm 0.00 in0.0 mm 0.00 in0.0 mm
02:00 AM 52.3°F11.3°C 48.9°F9.4°C 88% Calm Calm -- 29.87 in1011.5 mb 0.00 in0.0 mm 0.00 in0.0 mm 0.00 in0.0 mm
01:55 AM 52.3°F11.3°C 48.9°F9.4°C 88% Calm Calm -- 29.87 in1011.5 mb 0.00 in0.0 mm 0.00 in0.0 mm 0.00 in0.0 mm
01:50 AM 52.2°F11.2°C 48.7°F9.3°C 88% Calm Calm -- 29.88 in1011.9 mb 0.00 in0.0 mm 0.00 in0.0 mm 0.00 in0.0 mm
01:45 AM 52.2°F11.2°C 48.7°F9.3°C 88% Calm Calm -- 29.88 in1011.9 mb 0.00 in0.0 mm 0.00 in0.0 mm 0.00 in0.0 mm
01:40 AM 52.3°F11.3°C 48.9°F9.4°C 88% Calm Calm -- 29.87 in1011.5 mb 0.00 in0.0 mm 0.00 in0.0 mm 0.00 in0.0 mm
01:35 AM 52.3°F11.3°C 48.9°F9.4°C 88% Calm Calm -- 29.87 in1011.5 mb 0.00 in0.0 mm 0.00 in0.0 mm 0.00 in0.0 mm
01:30 AM 52.2°F11.2°C 48.7°F9.3°C 88% Calm Calm -- 29.88 in1011.9 mb 0.00 in0.0 mm 0.00 in0.0 mm 0.00 in0.0 mm
01:25 AM 52.0°F11.1°C 48.2°F9.0°C 87% Calm Calm -- 29.88 in1011.9 mb 0.00 in0.0 mm 0.00 in0.0 mm 0.00 in0.0 mm
01:20 AM 52.0°F11.1°C 48.2°F9.0°C 87% Calm Calm -- 29.88 in1011.9 mb 0.00 in0.0 mm 0.00 in0.0 mm 0.00 in0.0 mm
01:15 AM 52.0°F11.1°C 47.8°F8.8°C 86% Calm Calm -- 29.89 in1012.2 mb 0.00 in0.0 mm 0.00 in0.0 mm 0.00 in0.0 mm
01:10 AM 52.2°F11.2°C 48.0°F8.9°C 86% Calm Calm -- 29.88 in1011.9 mb 0.00 in0.0 mm 0.00 in0.0 mm 0.00 in0.0 mm
01:05 AM 52.3°F11.3°C 48.2°F9.0°C 86% Calm Calm -- 29.88 in1011.9 mb 0.00 in0.0 mm 0.00 in0.0 mm 0.00 in0.0 mm
01:00 AM 52.5°F11.4°C 48.2°F9.0°C 85% Calm Calm -- 29.89 in1012.2 mb 0.00 in0.0 mm 0.00 in0.0 mm 0.00 in0.0 mm
12:55 AM 53.1°F11.7°C 49.3°F9.6°C 87% Calm Calm -- 29.88 in1011.9 mb 0.00 in0.0 mm 0.00 in0.0 mm 0.00 in0.0 mm
12:50 AM 53.1°F11.7°C 48.9°F9.4°C 86% Calm Calm -- 29.88 in1011.9 mb 0.00 in0.0 mm 0.00 in0.0 mm 0.00 in0.0 mm
12:45 AM 52.9°F11.6°C 48.7°F9.3°C 86% Calm Calm -- 29.88 in1011.9 mb 0.00 in0.0 mm 0.00 in0.0 mm 0.00 in0.0 mm
12:40 AM 53.1°F11.7°C 48.7°F9.3°C 85% Calm Calm -- 29.88 in1011.9 mb 0.00 in0.0 mm 0.00 in0.0 mm 0.00 in0.0 mm
12:35 AM 53.2°F11.8°C 48.9°F9.4°C 85% Calm Calm -- 29.88 in1011.9 mb 0.00 in0.0 mm 0.00 in0.0 mm 0.00 in0.0 mm
12:30 AM 53.4°F11.9°C 49.3°F9.6°C 86% Calm Calm -- 29.88 in1011.9 mb 0.00 in0.0 mm 0.00 in0.0 mm 0.00 in0.0 mm
12:25 AM 53.4°F11.9°C 49.3°F9.6°C 86% Calm Calm -- 29.88 in1011.9 mb 0.00 in0.0 mm 0.00 in0.0 mm 0.00 in0.0 mm
12:20 AM 53.6°F12.0°C 49.5°F9.7°C 86% Calm Calm -- 29.88 in1011.9 mb 0.00 in0.0 mm 0.00 in0.0 mm 0.00 in0.0 mm
12:15 AM 53.6°F12.0°C 49.5°F9.7°C 86% Calm Calm -- 29.88 in1011.9 mb 0.00 in0.0 mm 0.00 in0.0 mm 0.00 in0.0 mm
12:10 AM 53.4°F11.9°C 49.1°F9.5°C 85% Calm Calm -- 29.89 in1012.2 mb 0.00 in0.0 mm 0.00 in0.0 mm 0.00 in0.0 mm
12:05 AM 53.4°F11.9°C 49.1°F9.5°C 85% Calm Calm -- 29.89 in1012.2 mb 0.00 in0.0 mm 0.00 in0.0 mm 0.00 in0.0 mm
12:00 AM 53.4°F11.9°C 48.7°F9.3°C 84% Calm Calm -- 29.89 in1012.2 mb 0.00 in0.0 mm 0.00 in0.0 mm 0.00 in0.0 mm